Location: Palomar Mountain Lodge
(33.3110°N, 116.8495°W)
Time: 05:48:34
(UTC-08:00)

Landsat 7 - Pass Details

Date: 13 December 2025
Orbit: 680 x 682 km, 97.9° (Epoch: 19 January)

Event Time Altitude Azimuth Distance (km) Brightness Sun altitude
Rises 17:24:44 0° 164° (SSE) 3,023 7.2 -9.1°
Reaches altitude 10° 17:26:57 10° 164° (SSE) 2,112 6.4 -9.6°
Maximum altitude 17:31:34 81° 77° (ENE) 692 3.7 -10.5°
Drops below altitude 10° 17:36:14 10° 350° (N) 2,125 6.2 -11.4°
Sets 17:38:28 0° 350° (N) 3,044 7.0 -11.8°
